weather.gov     
National Weather Service

Terminal Aerodrome Forecast
NWS Homepage
This page is being discontinued on March 12, 2014.
The same data is available at this site. Please update your bookmarks.
Thank you, and we apologize for the inconvenience.
Please send an email to SR-SRH.Webmaster@noaa.gov with any concerns.


Current Version
Previous Version:    01  02  03  04  05  06  07  08  09  10  11  12  13  14  15  16  17  18  19  20  21  22  23  24  25  26  27  28  29  30  
   31  32  33  
[Printable]
078
FTUS41 KILN 250500
TAFDAY
TAF
KDAY 250532Z 2506/2606 12011KT P6SM BKN120 OVC250
     FM250900 15010KT P6SM VCSH OVC050
      TEMPO 2509/2511 5SM -SHRA BR
     FM251100 18011KT P6SM VCSH OVC020
     FM251400 24012KT 4SM -SHRA VCTS OVC012CB
     FM251700 30017G29KT P6SM BKN018
     FM252000 30016G26KT P6SM SCT040
     FM260000 28010KT P6SM SKC=


U.S. Dept. of Commerce
NOAA National Weather Service
1325 East West Highway
Silver Spring, MD 20910
E-mail: w-nws.webmaster@noaa.gov
Page last modified: May 16, 2007
NATIONAL WEATHER SERVICE: for Safety, for Work, for Fun - FOR LIFE